Change the Weather History Date:

Thursday, September 12, 2013

  Actual Average Record
Temperature  
Mean Temperature 68 °F -  
Max Temperature 71 °F 69 °F 84 °F (2005)
Min Temperature 66 °F 49 °F 37 °F (2006)
Cooling Degree Days 4    
Growing Degree Days 18 (Base 50)    
Moisture  
Dew Point 66 °F    
Average Humidity 89    
Maximum Humidity 94    
Minimum Humidity 83    
Precipitation  
Precipitation 0.01 in - - ()
Sea Level Pressure  
Sea Level Pressure 29.88 in    
Wind  
Wind Speed 5 mph (South)    
Max Wind Speed 18 mph    
Max Gust Speed -    
Visibility 9 miles    
Events Thunderstorm    
Averages and records for this station are not official NWS values.
T = Trace of Precipitation, MM = Missing Value Source: NWS Daily Summary

Daily Weather History Graph

Daily Weather History Graph

Search for Another Location

Airport or City:

Trip Planner

Search our weather history database for the weather conditions in past years. The results will help you decide how hot, cold, wet, or windy it might be!

Date:

Astronomy

Sep. 12, 2013 Rise Set
Actual Time 6:17 AM EDT 6:56 PM EDT
Civil Twilight 5:47 AM EDT 7:25 PM EDT
Nautical Twilight 5:13 AM EDT 8:00 PM EDT
Astronomical Twilight 4:37 AM EDT 8:35 PM EDT
Moon 1:55 PM EDT (9/12) 11:35 PM EDT (9/12)
Length of Visible Light 13h 37m
Length of Day
12h 39m
Waxing Crescent, 50% of the Moon is Illuminated
Sep 12
Waxing Crescent
Sep 12
First Quarter
Sep 19
Full
Sep 26
Last Quarter
Oct 4
New

Hourly Weather History & Observations

Time (EDT) Temp. Dew Point Humidity Pressure Visibility Wind Dir Wind Speed Gust Speed Precip Events Conditions
12:15 AM 69.8 °F 66.2 °F 88% - 10.0 mi NW 3.5 mph - N/A   Unknown
12:35 AM - - N/A% - 10.0 mi NNW 9.2 mph - N/A   Unknown
12:55 AM - - N/A% - 10.0 mi North 18.4 mph - N/A   Unknown
1:15 AM - - N/A% 29.87 in 10.0 mi North 10.4 mph - N/A   Unknown
1:35 AM 68.0 °F 64.4 °F 88% 29.89 in 10.0 mi ESE 4.6 mph - N/A   Unknown
1:55 AM 68.0 °F 64.4 °F 88% 29.91 in 10.0 mi South 8.1 mph - N/A   Unknown
2:15 AM - - N/A% 29.90 in 10.0 mi SSE 8.1 mph - N/A   Unknown
2:35 AM - - N/A% 29.92 in 10.0 mi South 5.8 mph - N/A   Unknown
2:55 AM 66.2 °F 64.4 °F 94% 29.92 in 10.0 mi SE 3.5 mph - N/A   Unknown
3:15 AM 66.2 °F 64.4 °F 94% 29.92 in 10.0 mi SSE 5.8 mph - 0.01 in   Unknown
3:35 AM - - N/A% 29.92 in 10.0 mi South 3.5 mph - 0.01 in   Unknown
3:55 AM 66.2 °F 64.4 °F 94% 29.94 in 9.0 mi South 3.5 mph - 0.01 in   Unknown
4:15 AM - - N/A% 29.94 in 10.0 mi Calm Calm - N/A   Unknown
4:35 AM 66.2 °F 64.4 °F 94% 29.95 in 8.0 mi South 3.5 mph - N/A   Unknown
4:55 AM 66.2 °F 64.4 °F 94% 29.95 in 10.0 mi Calm Calm - N/A   Unknown
5:15 AM 66.2 °F 64.4 °F 94% 29.94 in 10.0 mi SSE 5.8 mph - N/A   Unknown
5:35 AM 66.2 °F 64.4 °F 94% 29.93 in 10.0 mi SSE 6.9 mph - N/A   Unknown
5:55 AM 66.2 °F 64.4 °F 94% 29.93 in 10.0 mi SSE 4.6 mph - N/A   Mostly Cloudy
6:15 AM 66.2 °F 64.4 °F 94% 29.94 in 10.0 mi SSW 4.6 mph - N/A   Overcast
6:35 AM 66.2 °F 64.4 °F 94% 29.94 in 10.0 mi Calm Calm - N/A   Overcast
6:55 AM 66.2 °F 64.4 °F 94% 29.94 in 8.0 mi Calm Calm - N/A   Overcast
7:15 AM 66.2 °F 64.4 °F 94% 29.93 in 5.0 mi Calm Calm - N/A   Overcast
7:35 AM 66.2 °F 64.4 °F 94% 29.92 in 7.0 mi Calm Calm - N/A   Mostly Cloudy
7:55 AM 68.0 °F 64.4 °F 88% 29.91 in 8.0 mi Calm Calm - N/A   Mostly Cloudy
8:15 AM 68.0 °F 64.4 °F 88% 29.91 in 10.0 mi Calm Calm - N/A   Overcast
8:35 AM 69.8 °F 66.2 °F 88% 29.89 in 10.0 mi South 3.5 mph - N/A   Mostly Cloudy
8:55 AM 69.8 °F 66.2 °F 88% 29.89 in 10.0 mi SSW 6.9 mph - N/A   Scattered Clouds
9:15 AM 71.6 °F 66.2 °F 83% 29.88 in 10.0 mi South 5.8 mph - N/A   Mostly Cloudy
9:35 AM 71.6 °F 66.2 °F 83% 29.88 in 10.0 mi SSE 4.6 mph - N/A   Partly Cloudy
9:55 AM 71.6 °F 66.2 °F 83% 29.87 in 10.0 mi South 4.6 mph - N/A   Partly Cloudy
10:16 AM 71.6 °F 66.2 °F 83% 29.87 in 10.0 mi WSW 5.8 mph - N/A   Clear
10:35 AM 71.6 °F 66.2 °F 83% 29.86 in 10.0 mi South 5.8 mph - N/A   Clear
10:55 AM 71.6 °F 66.2 °F 83% 29.85 in 10.0 mi South 4.6 mph - N/A   Partly Cloudy
11:15 AM 71.6 °F 66.2 °F 83% 29.85 in 10.0 mi South 4.6 mph - N/A   Scattered Clouds
11:35 AM 71.6 °F 66.2 °F 83% 29.83 in 9.0 mi South 4.6 mph - N/A   Mostly Cloudy
11:55 AM 71.6 °F 68.0 °F 88% 29.83 in 6.0 mi South 4.6 mph - N/A   Overcast
12:15 PM 71.6 °F 68.0 °F 88% 29.83 in 7.0 mi SSW 5.8 mph - N/A Thunderstorm Overcast
12:35 PM 69.8 °F 66.2 °F 88% 29.83 in 1.8 mi South 10.4 mph - N/A Thunderstorm Thunderstorm
1:15 PM 69.8 °F 66.2 °F 88% 29.79 in 9.0 mi South 4.6 mph - N/A   Mostly Cloudy
1:35 PM 69.8 °F 66.2 °F 88% 29.81 in 8.0 mi SSW 5.8 mph - N/A   Mostly Cloudy
1:55 PM 69.8 °F 68.0 °F 94% 29.81 in 9.0 mi SSW 5.8 mph - N/A   Overcast
2:15 PM 69.8 °F 68.0 °F 94% 29.80 in 4.0 mi SSE 8.1 mph - N/A Thunderstorm Overcast
2:36 PM 71.6 °F 68.0 °F 88% 29.78 in 8.0 mi SE 6.9 mph - N/A Thunderstorm Thunderstorm
2:55 PM - - N/A% 29.75 in 10.0 mi South 3.5 mph - N/A Thunderstorm Mostly Cloudy
3:15 PM - - N/A% 29.76 in 10.0 mi SSW 3.5 mph - N/A   Scattered Clouds
3:35 PM - - N/A% 29.75 in 10.0 mi Calm Calm - N/A   Mostly Cloudy